Regional Weather Roundup
Issued by NWS

Home | Current Version | Previous Version | Text Only | Print | Product List | Glossary Off
Versions: 1 2 3 4 5 6 7 8 9 10 11 12 13 14 15 16 17 18 19 20 21 22 23 24 25 26 27 28 29 30 31 32 33 34 35 36 37 38 39 40 41 42 43 44 45 46 47 48 49 50

000
ASUS43 KMKX 291221
RWRWI

WISCONSIN REGIONAL WEATHER ROUNDUP
NATIONAL WEATHER SERVICE MILWAUKEE/SULLIVAN WI
600 AM CST MON DEC 29 2014

NOTE: "FAIR" INDICATES FEW OR NO CLOUDS BELOW 12,000 FEET WITH NO
SIGNIFICANT WEATHER AND/OR OBSTRUCTIONS TO VISIBILITY.

WIZ001-002-006>008-014>016-023>028-291300-
NORTHWEST WISCONSIN

CITY           SKY/WX    TMP DP  RH WIND       PRES   REMARKS
SUPERIOR ARPT  CLEAR     -2  -9  71 N8        30.51R WCI -17
6HR MIN TEMP:  -2; 6HR MAX TEMP:   4;

ASHLAND        CLOUDY     2  -2  83 NW3       30.45R
6HR MIN TEMP:  -5; 6HR MAX TEMP:   2;

HAYWARD        PTCLDY   -10 -15  78 CALM      30.41R
6HR MIN TEMP: -13; 6HR MAX TEMP:  -8;

SIREN          PTCLDY    -4  -8  81 NW3       30.47R
6HR MIN TEMP:  -7; 6HR MAX TEMP:  -1;

CUMBERLAND     MOCLDY    -2  -8  78 N13       30.40R WCI -21
RICE LAKE      MOCLDY    -1  -7  76 NW5       30.44R WCI -12
6HR MIN TEMP:  -2; 6HR MAX TEMP:   2;

CHETEK         MOCLDY    -2  -6  82 CALM      30.42R
6HR MIN TEMP:  -4; 6HR MAX TEMP:  -1;

LADYSMITH      PTCLDY    -4  -8  83 NW5       30.40R WCI -15
6HR MIN TEMP:  -9; 6HR MAX TEMP:  -3;

EAU CLAIRE     MOCLDY     1  -5  75 CALM      30.42R
6HR MIN TEMP:   0; 6HR MAX TEMP:   6;

MENOMONIE      MOCLDY     3  -4  71 NW7       30.44R WCI  -9
6HR MIN TEMP:   3; 6HR MAX TEMP:   8;

NEW RICHMOND   MOCLDY     1  -6  75 N8        30.45R WCI -14
6HR MIN TEMP:  -1; 6HR MAX TEMP:   3;

OSCEOLA        MOCLDY     1  -4  77 N8        30.50R WCI -13
6HR MIN TEMP:  -2; 6HR MAX TEMP:   4;

$$

WIZ003>005-009-010-017-018-291300-
NORTH CENTRAL WISCONSIN

CITY           SKY/WX    TMP DP  RH WIND       PRES   REMARKS
MANITOWISH WTR FLURRIES   0  -3  86 CALM      30.31R
6HR MIN TEMP: -16; 6HR MAX TEMP:   0;

ARBOR VITAE    FLURRIES   1  -3  83 CALM      30.30S
6HR MIN TEMP:  -9; 6HR MAX TEMP:   1;

WOODRUFF       FLURRIES   1  -3  83 CALM      30.30S
6HR MIN TEMP:  -9; 6HR MAX TEMP:   1;

RHINELANDER    MOCLDY    -2  -6  83 NW6       30.30R WCI -14
6HR MIN TEMP: -13; 6HR MAX TEMP:  -2;

EAGLE RIVER    FLURRIES   0  -5  80 CALM      30.29S
6HR MIN TEMP:  -8; 6HR MAX TEMP:   0;

LAND O LAKES   FLURRIES   5   1  85 NW5       30.29R WCI  -4
6HR MIN TEMP:   2; 6HR MAX TEMP:   5;

PHILLIPS       PTCLDY   -15 -20  80 CALM      30.34R
6HR MIN TEMP: -17; 6HR MAX TEMP: -12;

TOMAHAWK       PTCLDY   -10 -14  81 CALM      30.33R
6HR MIN TEMP: -15; 6HR MAX TEMP:  -9;

MEDFORD        PTCLDY   N/A N/A N/A CALM      30.33R
MERRILL        PTCLDY    -3  -6  86 CALM      30.34R
6HR MIN TEMP:  -7; 6HR MAX TEMP:  -1;

$$

WIZ029-030-035-036-043>047-291300-
CENTRAL WISCONSIN

CITY           SKY/WX    TMP DP  RH WIND       PRES   REMARKS
WAUSAU         PTCLDY     2  -3  80 NW6       30.34R WCI  -9
6HR MIN TEMP:   1; 6HR MAX TEMP:   4;

MOSINEE        CLEAR      3   1  92 N6        30.35R WCI  -8
MARSHFIELD     MOCLDY     5   0  79 N6        30.35R WCI  -6
6HR MIN TEMP:   3; 6HR MAX TEMP:   9;

STEVENS POINT  MOCLDY     5   1  81 N6        30.37R WCI  -6
6HR MIN TEMP:   5; 6HR MAX TEMP:   8;

WAUPACA        CLOUDY    14   7  75 NW5       30.38R WCI   6
6HR MIN TEMP:  13; 6HR MAX TEMP:  16;

WAUTOMA        MOCLDY    13   6  73 N5        30.39R WCI   5
6HR MIN TEMP:  13; 6HR MAX TEMP:  16;

WISC RAPIDS    MOCLDY    10   2  69 N5        30.39R WCI   2
6HR MIN TEMP:  10; 6HR MAX TEMP:  13;

CAMP DOUGLAS   MOCLDY    12  11  93 NW5       30.39R WCI   4
6HR MIN TEMP:  12; 6HR MAX TEMP:  16;

$$

WIZ011>013-019>022-031-037>040-048>050-291300-
NORTHEAST WISCONSIN

CITY           SKY/WX    TMP DP  RH WIND       PRES   REMARKS
ANTIGO         MOCLDY    -4  -7  87 W6        30.31R WCI -16
6HR MIN TEMP:  -7; 6HR MAX TEMP:   0;

SHAWANO        CLOUDY    11   6  77 W3        30.38R
6HR MIN TEMP:  11; 6HR MAX TEMP:  14;

OCONTO         MOCLDY    12   6  78 NW5       30.37R WCI   4
6HR MIN TEMP:  10; 6HR MAX TEMP:  13;

STURGEON BAY   MOCLDY    16   7  67 NW13      30.36R WCI   2
6HR MIN TEMP:  16; 6HR MAX TEMP:  16;

GREEN BAY      CLOUDY    15   8  73 NW8       30.37R WCI   4
6HR MIN TEMP:  15; 6HR MAX TEMP:  16;

MANITOWOC      CLOUDY    17  11  77 N7        30.36R WCI   8
6HR MIN TEMP:  17; 6HR MAX TEMP:  20;

APPLETON       PTCLDY    14   7  73 N8        30.35R WCI   3
CLINTONVILLE   CLOUDY    12   5  73 N7        30.37R WCI   2
OSHKOSH        CLOUDY    16   7  67 N7        30.36R WCI   6
6HR MIN TEMP:  16; 6HR MAX TEMP:  19;

$$

WIZ032>034-041-042-053>061-291300-
SOUTHWEST WISCONSIN

CITY           SKY/WX    TMP DP  RH WIND       PRES   REMARKS
LA CROSSE      CLOUDY    14   6  70 N8        30.41R WCI   3
6HR MIN TEMP:  14; 6HR MAX TEMP:  18;

SPARTA         MOCLDY    11   6  77 N5        30.41R WCI   3
6HR MIN TEMP:  11; 6HR MAX TEMP:  16;

VIROQUA        MOCLDY    14   9  81 NE10      30.33R WCI   1
6HR MIN TEMP:  14; 6HR MAX TEMP:  19;

BOSCOBEL       CLOUDY    20  12  71 VRB5      30.37R WCI  13
6HR MIN TEMP:  20; 6HR MAX TEMP:  24;

PRAIRIE DU CHI CLOUDY    21  13  68 CALM      30.37R
6HR MIN TEMP:  21; 6HR MAX TEMP:  25;

PLATTEVILLE    PTCLDY    21  16  81 CALM      30.33R
6HR MIN TEMP:  21; 6HR MAX TEMP:  26;

$$

WIZ056-057-062-063-064-067-068-291300-
SOUTH CENTRAL WISCONSIN

CITY           SKY/WX    TMP DP  RH WIND       PRES   REMARKS
REEDSBURG      MOCLDY    15   9  76 N9        30.36R WCI   3
6HR MIN TEMP:  15; 6HR MAX TEMP:  19;

BARABOO/DELLS  MOCLDY    15  11  84 N6        30.35S WCI   6
6HR MIN TEMP:  15; 6HR MAX TEMP:  19;

LONE ROCK      MOCLDY    22  12  65 N6        30.37R WCI  14
6HR MIN TEMP:  22; 6HR MAX TEMP:  26;

MINERAL POINT  MOCLDY    21  14  73 NE6       30.32R WCI  14
MADISON        CLOUDY    18  13  80 N9        30.34R WCI   7
6HR MIN TEMP:  18; 6HR MAX TEMP:  24;

MIDDLETON      MOCLDY    20  14  76 N7        30.35R WCI  11
6HR MIN TEMP:  20; 6HR MAX TEMP:  26;

WATERTOWN      MOCLDY    17  12  80 N7        30.34R WCI   7
6HR MIN TEMP:  17; 6HR MAX TEMP:  24;

MONROE         CLOUDY    21  18  86 N8        30.30R WCI  12
JANESVILLE     CLOUDY    23  18  80 N8        30.32R WCI  14
$$

WIZ051-052-058>065-066-070>072-291300-
SOUTHEAST WISCONSIN

CITY           SKY/WX    TMP DP  RH WIND       PRES   REMARKS
MILWAUKEE      MOCLDY    22  13  68 N10       30.32R WCI  11
6HR MIN TEMP:  22; 6HR MAX TEMP:  28;

WAUKESHA       CLEAR     18  14  86 N6        30.33R WCI   9
MILWAUKEE/TIMM MOCLDY    19  12  73 N7        30.34R WCI  10
RACINE         CLOUDY    24  17  74 N10       30.33R WCI  14
6HR MIN TEMP:  23; 6HR MAX TEMP:  27;

BURLINGTON     MOCLDY    20  15  79 N8        30.32R WCI  11
6HR MIN TEMP:  20; 6HR MAX TEMP:  24;

KENOSHA        MOCLDY    23  17  78 N7        30.32R WCI  15
6HR MIN TEMP:  23; 6HR MAX TEMP:  27;

FOND DU LAC    CLOUDY    17   6  62 N9        30.36R WCI   6
6HR MIN TEMP:  16; 6HR MAX TEMP:  21;

SHEBOYGAN      CLOUDY    17   8  67 N8        30.35R WCI   7
6HR MIN TEMP:  17; 6HR MAX TEMP:  22;

WEST BEND      CLOUDY    18   9  68 N5        30.34R WCI  11
JUNEAU         MOCLDY    16  11  80 N8        30.35R WCI   5
6HR MIN TEMP:  16; 6HR MAX TEMP:  22;

$$

LSZ147-162-291300-
LAKE SUPERIOR

STATION/POSITION TIME  TEMP    WIND        PRES    WAVE
                       AIR SEA DIR/SP/G            HT/PER
                 (UTC) (F)     (DEG/KT/KT) (MB)    (FT/S)
DEVILS ISLAND    1200    5     310/ 12/ 16 1032.9R
PORT WING        1100    6     320/ 11/ 13 1031.5R
SAXON HARBOR     1140    6     240/  8/ 11 1030.5R
$$

LMZ867-665-643>646-291300-
LAKE MICHIGAN

STATION/POSITION TIME  TEMP    WIND        PRES    WAVE
                       AIR SEA DIR/SP/G            HT/PER



USA.gov is the U.S. government's official web portal to all federal, state and local government web resources and services.